iso_date,Year,Hour,Min,DOY,POS_DOY,Lat,Lon,BP,Ts,Ta,has_bp,has_ts,has_ta,BuoyID,Buoy_Type,Buoy_Owner,Logistics,Hemisphere
2020-09-05T18:00:00Z,2020,18,0,249.75,249.75,61.408,-52.712,-999.0,6.33,-999.0,no,yes,no,300234068342820,SVPGHI,AOML,MARIA_S._MERI,North
2020-09-05T19:02:55Z,2020,19,3,249.7937,249.7937,61.407,-52.704,-999.0,6.73,-999.0,no,yes,no,300234068342820,SVPGHI,AOML,MARIA_S._MERI,North
2020-09-05T19:59:57Z,2020,20,0,249.8333,249.8333,61.409,-52.697,-999.0,6.84,-999.0,no,yes,no,300234068342820,SVPGHI,AOML,MARIA_S._MERI,North
2020-09-05T21:00:00Z,2020,21,0,249.875,249.875,61.413,-52.693,-999.0,6.94,-999.0,no,yes,no,300234068342820,SVPGHI,AOML,MARIA_S._MERI,North
2020-09-05T22:00:02Z,2020,22,0,249.9167,249.9167,61.417,-52.687,-999.0,6.97,-999.0,no,yes,no,300234068342820,SVPGHI,AOML,MARIA_S._MERI,North
2020-09-05T23:02:58Z,2020,23,3,249.9604,249.9604,61.418,-52.683,-999.0,7.0,-999.0,no,yes,no,300234068342820,SVPGHI,AOML,MARIA_S._MERI,North
2020-09-06T00:00:00Z,2020,0,0,250.0,250.0,61.421,-52.675,-999.0,7.22,-999.0,no,yes,no,300234068342820,SVPGHI,AOML,MARIA_S._MERI,North
2020-09-06T01:00:02Z,2020,1,0,250.0417,250.0417,61.423,-52.663,-999.0,7.39,-999.0,no,yes,no,300234068342820,SVPGHI,AOML,MARIA_S._MERI,North
2020-09-06T02:01:58Z,2020,2,2,250.0847,250.0847,61.423,-52.655,-999.0,7.47,-999.0,no,yes,no,300234068342820,SVPGHI,AOML,MARIA_S._MERI,North
2020-09-06T03:00:00Z,2020,3,0,250.125,250.125,61.42,-52.645,-999.0,7.36,-999.0,no,yes,no,300234068342820,SVPGHI,AOML,MARIA_S._MERI,North
2020-09-06T04:03:56Z,2020,4,4,250.1694,250.1694,61.417,-52.632,-999.0,7.2,-999.0,no,yes,no,300234068342820,SVPGHI,AOML,MARIA_S._MERI,North
2020-09-06T04:59:57Z,2020,5,0,250.2083,250.2083,61.413,-52.619,-999.0,6.98,-999.0,no,yes,no,300234068342820,SVPGHI,AOML,MARIA_S._MERI,North
2020-09-06T06:00:00Z,2020,6,0,250.25,250.25,61.407,-52.604,-999.0,6.95,-999.0,no,yes,no,300234068342820,SVPGHI,AOML,MARIA_S._MERI,North
2020-09-06T07:02:03Z,2020,7,2,250.2931,250.2931,61.401,-52.589,-999.0,6.98,-999.0,no,yes,no,300234068342820,SVPGHI,AOML,MARIA_S._MERI,North
2020-09-06T07:59:57Z,2020,8,0,250.3333,250.3333,61.395,-52.58,-999.0,6.94,-999.0,no,yes,no,300234068342820,SVPGHI,AOML,MARIA_S._MERI,North
2020-09-06T09:00:00Z,2020,9,0,250.375,250.375,61.389,-52.575,-999.0,6.86,-999.0,no,yes,no,300234068342820,SVPGHI,AOML,MARIA_S._MERI,North
2020-09-06T10:02:55Z,2020,10,3,250.4187,250.4187,61.38,-52.576,-999.0,6.83,-999.0,no,yes,no,300234068342820,SVPGHI,AOML,MARIA_S._MERI,North
2020-09-06T10:59:57Z,2020,11,0,250.4583,250.4583,61.372,-52.578,-999.0,6.81,-999.0,no,yes,no,300234068342820,SVPGHI,AOML,MARIA_S._MERI,North
2020-09-06T12:00:00Z,2020,12,0,250.5,250.5,61.364,-52.586,-999.0,6.83,-999.0,no,yes,no,300234068342820,SVPGHI,AOML,MARIA_S._MERI,North
2020-09-06T13:00:02Z,2020,13,0,250.5417,250.5417,61.358,-52.596,-999.0,6.83,-999.0,no,yes,no,300234068342820,SVPGHI,AOML,MARIA_S._MERI,North
2020-09-06T14:00:57Z,2020,14,1,250.584,250.584,61.349,-52.607,-999.0,6.8,-999.0,no,yes,no,300234068342820,SVPGHI,AOML,MARIA_S._MERI,North
2020-09-06T15:00:00Z,2020,15,0,250.625,250.625,61.344,-52.606,-999.0,6.71,-999.0,no,yes,no,300234068342820,SVPGHI,AOML,MARIA_S._MERI,North
2020-09-06T16:00:02Z,2020,16,0,250.6667,250.6667,61.335,-52.61,-999.0,6.44,-999.0,no,yes,no,300234068342820,SVPGHI,AOML,MARIA_S._MERI,North
2020-09-06T16:59:57Z,2020,17,0,250.7083,250.7083,61.324,-52.604,-999.0,6.56,-999.0,no,yes,no,300234068342820,SVPGHI,AOML,MARIA_S._MERI,North
2020-09-06T18:03:01Z,2020,18,3,250.7521,250.7521,61.312,-52.593,-999.0,6.98,-999.0,no,yes,no,300234068342820,SVPGHI,AOML,MARIA_S._MERI,North
2020-09-06T19:00:02Z,2020,19,0,250.7917,250.7917,61.299,-52.587,-999.0,7.44,-999.0,no,yes,no,300234068342820,SVPGHI,AOML,MARIA_S._MERI,North
2020-09-06T19:59:57Z,2020,20,0,250.8333,250.8333,61.284,-52.584,-999.0,7.59,-999.0,no,yes,no,300234068342820,SVPGHI,AOML,MARIA_S._MERI,North
2020-09-06T21:00:00Z,2020,21,0,250.875,250.875,61.27,-52.583,-999.0,7.46,-999.0,no,yes,no,300234068342820,SVPGHI,AOML,MARIA_S._MERI,North
2020-09-06T22:00:02Z,2020,22,0,250.9167,250.9167,61.254,-52.585,-999.0,7.37,-999.0,no,yes,no,300234068342820,SVPGHI,AOML,MARIA_S._MERI,North
2020-09-06T22:59:57Z,2020,23,0,250.9583,250.9583,61.237,-52.589,-999.0,7.22,-999.0,no,yes,no,300234068342820,SVPGHI,AOML,MARIA_S._MERI,North
2020-09-07T00:03:01Z,2020,0,3,251.0021,251.0021,61.219,-52.597,-999.0,7.08,-999.0,no,yes,no,300234068342820,SVPGHI,AOML,MARIA_S._MERI,North
2020-09-07T01:00:02Z,2020,1,0,251.0417,251.0417,61.203,-52.604,-999.0,7.0,-999.0,no,yes,no,300234068342820,SVPGHI,AOML,MARIA_S._MERI,North
2020-09-07T01:59:57Z,2020,2,0,251.0833,251.0833,61.186,-52.612,-999.0,6.99,-999.0,no,yes,no,300234068342820,SVPGHI,AOML,MARIA_S._MERI,North
2020-09-07T03:00:00Z,2020,3,0,251.125,251.125,61.169,-52.621,-999.0,7.03,-999.0,no,yes,no,300234068342820,SVPGHI,AOML,MARIA_S._MERI,North
2020-09-07T04:03:56Z,2020,4,4,251.1694,251.1694,-90.0,-180.0,-999.0,6.96,-999.0,no,yes,no,300234068342820,SVPGHI,AOML,MARIA_S._MERI,North
2020-09-07T05:03:59Z,2020,5,4,251.2111,251.2111,61.136,-52.637,-999.0,6.88,-999.0,no,yes,no,300234068342820,SVPGHI,AOML,MARIA_S._MERI,North
2020-09-07T06:00:00Z,2020,6,0,251.25,251.25,61.119,-52.643,-999.0,6.56,-999.0,no,yes,no,300234068342820,SVPGHI,AOML,MARIA_S._MERI,North
2020-09-07T07:00:02Z,2020,7,0,251.2917,251.2917,61.102,-52.651,-999.0,6.67,-999.0,no,yes,no,300234068342820,SVPGHI,AOML,MARIA_S._MERI,North
2020-09-07T07:59:57Z,2020,8,0,251.3333,251.3333,61.093,-52.664,-999.0,6.62,-999.0,no,yes,no,300234068342820,SVPGHI,AOML,MARIA_S._MERI,North
2020-09-07T09:00:00Z,2020,9,0,251.375,251.375,61.084,-52.681,-999.0,6.64,-999.0,no,yes,no,300234068342820,SVPGHI,AOML,MARIA_S._MERI,North
2020-09-07T10:00:02Z,2020,10,0,251.4167,251.4167,61.081,-52.694,-999.0,6.67,-999.0,no,yes,no,300234068342820,SVPGHI,AOML,MARIA_S._MERI,North
2020-09-07T10:59:57Z,2020,11,0,251.4583,251.4583,61.076,-52.702,-999.0,6.74,-999.0,no,yes,no,300234068342820,SVPGHI,AOML,MARIA_S._MERI,North
2020-09-07T12:04:01Z,2020,12,4,251.5028,251.5028,61.07,-52.71,-999.0,6.76,-999.0,no,yes,no,300234068342820,SVPGHI,AOML,MARIA_S._MERI,North
2020-09-07T13:01:03Z,2020,13,1,251.5424,251.5424,61.063,-52.718,-999.0,6.81,-999.0,no,yes,no,300234068342820,SVPGHI,AOML,MARIA_S._MERI,North
2020-09-07T13:59:57Z,2020,14,0,251.5833,251.5833,61.057,-52.729,-999.0,6.93,-999.0,no,yes,no,300234068342820,SVPGHI,AOML,MARIA_S._MERI,North
2020-09-07T15:00:00Z,2020,15,0,251.625,251.625,61.049,-52.738,-999.0,6.98,-999.0,no,yes,no,300234068342820,SVPGHI,AOML,MARIA_S._MERI,North
2020-09-07T16:00:02Z,2020,16,0,251.6667,251.6667,61.043,-52.75,-999.0,7.04,-999.0,no,yes,no,300234068342820,SVPGHI,AOML,MARIA_S._MERI,North
2020-09-07T17:00:57Z,2020,17,1,251.709,251.709,61.035,-52.758,-999.0,7.06,-999.0,no,yes,no,300234068342820,SVPGHI,AOML,MARIA_S._MERI,North
2020-09-07T18:00:00Z,2020,18,0,251.75,251.75,61.029,-52.769,-999.0,7.06,-999.0,no,yes,no,300234068342820,SVPGHI,AOML,MARIA_S._MERI,North
2020-09-07T19:02:03Z,2020,19,2,251.7931,251.7931,61.023,-52.782,-999.0,7.04,-999.0,no,yes,no,300234068342820,SVPGHI,AOML,MARIA_S._MERI,North
2020-09-07T19:59:57Z,2020,20,0,251.8333,251.8333,61.018,-52.794,-999.0,6.84,-999.0,no,yes,no,300234068342820,SVPGHI,AOML,MARIA_S._MERI,North
2020-09-07T21:00:00Z,2020,21,0,251.875,251.875,61.015,-52.81,-999.0,6.76,-999.0,no,yes,no,300234068342820,SVPGHI,AOML,MARIA_S._MERI,North
2020-09-07T22:00:02Z,2020,22,0,251.9167,251.9167,61.013,-52.831,-999.0,6.75,-999.0,no,yes,no,300234068342820,SVPGHI,AOML,MARIA_S._MERI,North
2020-09-07T22:59:57Z,2020,23,0,251.9583,251.9583,61.011,-52.85,-999.0,6.68,-999.0,no,yes,no,300234068342820,SVPGHI,AOML,MARIA_S._MERI,North
2020-09-08T00:00:00Z,2020,0,0,252.0,252.0,61.011,-52.872,-999.0,6.6,-999.0,no,yes,no,300234068342820,SVPGHI,AOML,MARIA_S._MERI,North
2020-09-08T01:00:02Z,2020,1,0,252.0417,252.0417,61.012,-52.896,-999.0,6.57,-999.0,no,yes,no,300234068342820,SVPGHI,AOML,MARIA_S._MERI,North
2020-09-08T01:59:57Z,2020,2,0,252.0833,252.0833,61.011,-52.916,-999.0,6.53,-999.0,no,yes,no,300234068342820,SVPGHI,AOML,MARIA_S._MERI,North
2020-09-08T03:00:00Z,2020,3,0,252.125,252.125,61.013,-52.939,-999.0,6.52,-999.0,no,yes,no,300234068342820,SVPGHI,AOML,MARIA_S._MERI,North
2020-09-08T04:01:03Z,2020,4,1,252.1674,252.1674,61.012,-52.959,-999.0,6.53,-999.0,no,yes,no,300234068342820,SVPGHI,AOML,MARIA_S._MERI,North
2020-09-08T04:59:57Z,2020,5,0,252.2083,252.2083,61.013,-52.979,-999.0,6.52,-999.0,no,yes,no,300234068342820,SVPGHI,AOML,MARIA_S._MERI,North
2020-09-08T06:00:00Z,2020,6,0,252.25,252.25,61.012,-52.994,-999.0,6.52,-999.0,no,yes,no,300234068342820,SVPGHI,AOML,MARIA_S._MERI,North
2020-09-08T07:00:02Z,2020,7,0,252.2917,252.2917,61.012,-53.009,-999.0,6.5,-999.0,no,yes,no,300234068342820,SVPGHI,AOML,MARIA_S._MERI,North
2020-09-08T07:59:57Z,2020,8,0,252.3333,252.3333,61.012,-53.018,-999.0,6.31,-999.0,no,yes,no,300234068342820,SVPGHI,AOML,MARIA_S._MERI,North
2020-09-08T09:00:00Z,2020,9,0,252.375,252.375,61.011,-53.029,-999.0,6.21,-999.0,no,yes,no,300234068342820,SVPGHI,AOML,MARIA_S._MERI,North
2020-09-08T10:00:02Z,2020,10,0,252.4167,252.4167,61.009,-53.045,-999.0,6.17,-999.0,no,yes,no,300234068342820,SVPGHI,AOML,MARIA_S._MERI,North
2020-09-08T11:03:59Z,2020,11,4,252.4611,252.4611,61.007,-53.063,-999.0,6.19,-999.0,no,yes,no,300234068342820,SVPGHI,AOML,MARIA_S._MERI,North
2020-09-08T12:00:00Z,2020,12,0,252.5,252.5,61.007,-53.084,-999.0,6.29,-999.0,no,yes,no,300234068342820,SVPGHI,AOML,MARIA_S._MERI,North
2020-09-08T13:00:02Z,2020,13,0,252.5417,252.5417,61.006,-53.11,-999.0,6.46,-999.0,no,yes,no,300234068342820,SVPGHI,AOML,MARIA_S._MERI,North
2020-09-08T14:00:57Z,2020,14,1,252.584,252.584,61.007,-53.137,-999.0,6.66,-999.0,no,yes,no,300234068342820,SVPGHI,AOML,MARIA_S._MERI,North
2020-09-08T15:04:01Z,2020,15,4,252.6278,252.6278,61.014,-53.164,-999.0,6.61,-999.0,no,yes,no,300234068342820,SVPGHI,AOML,MARIA_S._MERI,North
2020-09-08T16:00:02Z,2020,16,0,252.6667,252.6667,61.021,-53.184,-999.0,6.68,-999.0,no,yes,no,300234068342820,SVPGHI,AOML,MARIA_S._MERI,North
2020-09-08T16:59:57Z,2020,17,0,252.7083,252.7083,61.025,-53.208,-999.0,6.73,-999.0,no,yes,no,300234068342820,SVPGHI,AOML,MARIA_S._MERI,North
2020-09-08T18:00:00Z,2020,18,0,252.75,252.75,61.032,-53.223,-999.0,6.7,-999.0,no,yes,no,300234068342820,SVPGHI,AOML,MARIA_S._MERI,North
2020-09-08T19:00:02Z,2020,19,0,252.7917,252.7917,61.041,-53.235,-999.0,6.64,-999.0,no,yes,no,300234068342820,SVPGHI,AOML,MARIA_S._MERI,North
2020-09-08T20:03:59Z,2020,20,4,252.8361,252.8361,61.047,-53.247,-999.0,6.62,-999.0,no,yes,no,300234068342820,SVPGHI,AOML,MARIA_S._MERI,North
2020-09-08T21:04:01Z,2020,21,4,252.8778,252.8778,61.05,-53.257,-999.0,6.63,-999.0,no,yes,no,300234068342820,SVPGHI,AOML,MARIA_S._MERI,North
2020-09-08T22:01:03Z,2020,22,1,252.9174,252.9174,61.056,-53.26,-999.0,6.64,-999.0,no,yes,no,300234068342820,SVPGHI,AOML,MARIA_S._MERI,North
2020-09-08T23:03:59Z,2020,23,4,252.9611,252.9611,61.058,-53.256,-999.0,6.63,-999.0,no,yes,no,300234068342820,SVPGHI,AOML,MARIA_S._MERI,North
2020-09-09T00:04:01Z,2020,0,4,253.0028,253.0028,61.059,-53.253,-999.0,6.63,-999.0,no,yes,no,300234068342820,SVPGHI,AOML,MARIA_S._MERI,North
2020-09-09T01:00:02Z,2020,1,0,253.0417,253.0417,61.053,-53.249,-999.0,6.63,-999.0,no,yes,no,300234068342820,SVPGHI,AOML,MARIA_S._MERI,North
2020-09-09T01:59:57Z,2020,2,0,253.0833,253.0833,61.043,-53.241,-999.0,6.62,-999.0,no,yes,no,300234068342820,SVPGHI,AOML,MARIA_S._MERI,North
2020-09-09T03:00:00Z,2020,3,0,253.125,253.125,61.03,-53.239,-999.0,6.61,-999.0,no,yes,no,300234068342820,SVPGHI,AOML,MARIA_S._MERI,North
2020-09-09T04:01:03Z,2020,4,1,253.1674,253.1674,61.013,-53.24,-999.0,6.61,-999.0,no,yes,no,300234068342820,SVPGHI,AOML,MARIA_S._MERI,North
2020-09-09T04:59:57Z,2020,5,0,253.2083,253.2083,60.998,-53.259,-999.0,6.61,-999.0,no,yes,no,300234068342820,SVPGHI,AOML,MARIA_S._MERI,North
2020-09-09T06:00:00Z,2020,6,0,253.25,253.25,60.982,-53.278,-999.0,6.6,-999.0,no,yes,no,300234068342820,SVPGHI,AOML,MARIA_S._MERI,North
2020-09-09T07:00:02Z,2020,7,0,253.2917,253.2917,60.97,-53.309,-999.0,6.6,-999.0,no,yes,no,300234068342820,SVPGHI,AOML,MARIA_S._MERI,North
2020-09-09T08:00:57Z,2020,8,1,253.334,253.334,60.963,-53.345,-999.0,6.61,-999.0,no,yes,no,300234068342820,SVPGHI,AOML,MARIA_S._MERI,North
2020-09-09T09:00:00Z,2020,9,0,253.375,253.375,60.963,-53.385,-999.0,6.6,-999.0,no,yes,no,300234068342820,SVPGHI,AOML,MARIA_S._MERI,North
2020-09-09T10:03:56Z,2020,10,4,253.4194,253.4194,60.968,-53.433,-999.0,6.61,-999.0,no,yes,no,300234068342820,SVPGHI,AOML,MARIA_S._MERI,North
2020-09-09T11:00:57Z,2020,11,1,253.459,253.459,60.976,-53.468,-999.0,6.63,-999.0,no,yes,no,300234068342820,SVPGHI,AOML,MARIA_S._MERI,North
2020-09-09T12:02:00Z,2020,12,2,253.5014,253.5014,60.987,-53.498,-999.0,6.64,-999.0,no,yes,no,300234068342820,SVPGHI,AOML,MARIA_S._MERI,North
2020-09-09T13:00:02Z,2020,13,0,253.5417,253.5417,60.999,-53.519,-999.0,6.65,-999.0,no,yes,no,300234068342820,SVPGHI,AOML,MARIA_S._MERI,North
2020-09-09T13:59:57Z,2020,14,0,253.5833,253.5833,61.011,-53.538,-999.0,6.67,-999.0,no,yes,no,300234068342820,SVPGHI,AOML,MARIA_S._MERI,North
2020-09-09T15:00:00Z,2020,15,0,253.625,253.625,61.019,-53.552,-999.0,6.71,-999.0,no,yes,no,300234068342820,SVPGHI,AOML,MARIA_S._MERI,North
2020-09-09T16:03:56Z,2020,16,4,253.6694,253.6694,61.022,-53.563,-999.0,6.74,-999.0,no,yes,no,300234068342820,SVPGHI,AOML,MARIA_S._MERI,North
2020-09-09T17:02:58Z,2020,17,3,253.7104,253.7104,61.021,-53.572,-999.0,6.78,-999.0,no,yes,no,300234068342820,SVPGHI,AOML,MARIA_S._MERI,North
2020-09-09T18:00:00Z,2020,18,0,253.75,253.75,61.016,-53.589,-999.0,6.79,-999.0,no,yes,no,300234068342820,SVPGHI,AOML,MARIA_S._MERI,North
2020-09-09T19:00:02Z,2020,19,0,253.7917,253.7917,61.016,-53.603,-999.0,6.8,-999.0,no,yes,no,300234068342820,SVPGHI,AOML,MARIA_S._MERI,North
2020-09-09T20:03:59Z,2020,20,4,253.8361,253.8361,61.009,-53.635,-999.0,6.81,-999.0,no,yes,no,300234068342820,SVPGHI,AOML,MARIA_S._MERI,North
2020-09-09T21:01:00Z,2020,21,1,253.8757,253.8757,61.001,-53.668,-999.0,6.82,-999.0,no,yes,no,300234068342820,SVPGHI,AOML,MARIA_S._MERI,North
2020-09-09T22:00:02Z,2020,22,0,253.9167,253.9167,61.016,-53.713,-999.0,6.82,-999.0,no,yes,no,300234068342820,SVPGHI,AOML,MARIA_S._MERI,North
2020-09-09T23:03:59Z,2020,23,4,253.9611,253.9611,61.032,-53.753,-999.0,6.83,-999.0,no,yes,no,300234068342820,SVPGHI,AOML,MARIA_S._MERI,North
2020-09-10T00:04:01Z,2020,0,4,254.0028,254.0028,61.054,-53.781,-999.0,6.82,-999.0,no,yes,no,300234068342820,SVPGHI,AOML,MARIA_S._MERI,North
2020-09-10T01:00:02Z,2020,1,0,254.0417,254.0417,61.069,-53.791,-999.0,6.82,-999.0,no,yes,no,300234068342820,SVPGHI,AOML,MARIA_S._MERI,North
2020-09-10T02:03:59Z,2020,2,4,254.0861,254.0861,61.092,-53.795,-999.0,6.82,-999.0,no,yes,no,300234068342820,SVPGHI,AOML,MARIA_S._MERI,North
2020-09-10T03:02:00Z,2020,3,2,254.1264,254.1264,61.111,-53.796,-999.0,7.29,-999.0,no,yes,no,300234068342820,SVPGHI,AOML,MARIA_S._MERI,North
2020-09-10T04:00:02Z,2020,4,0,254.1667,254.1667,61.127,-53.788,-999.0,7.29,-999.0,no,yes,no,300234068342820,SVPGHI,AOML,MARIA_S._MERI,North
2020-09-10T04:59:57Z,2020,5,0,254.2083,254.2083,61.141,-53.79,-999.0,7.43,-999.0,no,yes,no,300234068342820,SVPGHI,AOML,MARIA_S._MERI,North
2020-09-10T06:02:00Z,2020,6,2,254.2514,254.2514,61.16,-53.782,-999.0,7.07,-999.0,no,yes,no,300234068342820,SVPGHI,AOML,MARIA_S._MERI,North
2020-09-10T07:00:02Z,2020,7,0,254.2917,254.2917,61.176,-53.774,-999.0,7.03,-999.0,no,yes,no,300234068342820,SVPGHI,AOML,MARIA_S._MERI,North
2020-09-10T07:59:57Z,2020,8,0,254.3333,254.3333,61.194,-53.758,-999.0,6.94,-999.0,no,yes,no,300234068342820,SVPGHI,AOML,MARIA_S._MERI,North
2020-09-10T09:01:00Z,2020,9,1,254.3757,254.3757,61.209,-53.744,-999.0,6.8,-999.0,no,yes,no,300234068342820,SVPGHI,AOML,MARIA_S._MERI,North
2020-09-10T10:00:02Z,2020,10,0,254.4167,254.4167,61.221,-53.73,-999.0,6.81,-999.0,no,yes,no,300234068342820,SVPGHI,AOML,MARIA_S._MERI,North
2020-09-10T10:59:57Z,2020,11,0,254.4583,254.4583,61.235,-53.718,-999.0,6.84,-999.0,no,yes,no,300234068342820,SVPGHI,AOML,MARIA_S._MERI,North
2020-09-10T12:00:00Z,2020,12,0,254.5,254.5,61.246,-53.703,-999.0,6.86,-999.0,no,yes,no,300234068342820,SVPGHI,AOML,MARIA_S._MERI,North
2020-09-10T13:02:55Z,2020,13,3,254.5437,254.5437,61.254,-53.697,-999.0,6.88,-999.0,no,yes,no,300234068342820,SVPGHI,AOML,MARIA_S._MERI,North
2020-09-10T13:59:57Z,2020,14,0,254.5833,254.5833,61.264,-53.694,-999.0,6.91,-999.0,no,yes,no,300234068342820,SVPGHI,AOML,MARIA_S._MERI,North
2020-09-10T15:00:00Z,2020,15,0,254.625,254.625,61.278,-53.69,-999.0,6.9,-999.0,no,yes,no,300234068342820,SVPGHI,AOML,MARIA_S._MERI,North
2020-09-10T16:02:03Z,2020,16,2,254.6681,254.6681,61.29,-53.684,-999.0,6.88,-999.0,no,yes,no,300234068342820,SVPGHI,AOML,MARIA_S._MERI,North
2020-09-10T16:59:57Z,2020,17,0,254.7083,254.7083,61.305,-53.672,-999.0,6.88,-999.0,no,yes,no,300234068342820,SVPGHI,AOML,MARIA_S._MERI,North
2020-09-10T18:00:00Z,2020,18,0,254.75,254.75,61.316,-53.66,-999.0,6.87,-999.0,no,yes,no,300234068342820,SVPGHI,AOML,MARIA_S._MERI,North
2020-09-10T19:00:02Z,2020,19,0,254.7917,254.7917,61.332,-53.644,-999.0,6.85,-999.0,no,yes,no,300234068342820,SVPGHI,AOML,MARIA_S._MERI,North
2020-09-10T19:59:57Z,2020,20,0,254.8333,254.8333,61.348,-53.618,-999.0,6.83,-999.0,no,yes,no,300234068342820,SVPGHI,AOML,MARIA_S._MERI,North
2020-09-10T21:04:01Z,2020,21,4,254.8778,254.8778,61.367,-53.592,-999.0,6.82,-999.0,no,yes,no,300234068342820,SVPGHI,AOML,MARIA_S._MERI,North
2020-09-10T22:03:56Z,2020,22,4,254.9194,254.9194,61.374,-53.562,-999.0,6.79,-999.0,no,yes,no,300234068342820,SVPGHI,AOML,MARIA_S._MERI,North
2020-09-10T22:59:57Z,2020,23,0,254.9583,254.9583,61.385,-53.529,-999.0,6.73,-999.0,no,yes,no,300234068342820,SVPGHI,AOML,MARIA_S._MERI,North
2020-09-11T00:01:00Z,2020,0,1,255.0007,255.0007,61.395,-53.494,-999.0,6.69,-999.0,no,yes,no,300234068342820,SVPGHI,AOML,MARIA_S._MERI,North
2020-09-11T01:00:02Z,2020,1,0,255.0417,255.0417,61.401,-53.454,-999.0,6.66,-999.0,no,yes,no,300234068342820,SVPGHI,AOML,MARIA_S._MERI,North
2020-09-11T02:02:58Z,2020,2,3,255.0854,255.0854,61.405,-53.41,-999.0,6.64,-999.0,no,yes,no,300234068342820,SVPGHI,AOML,MARIA_S._MERI,North
2020-09-11T03:04:01Z,2020,3,4,255.1278,255.1278,61.408,-53.377,-999.0,6.64,-999.0,no,yes,no,300234068342820,SVPGHI,AOML,MARIA_S._MERI,North
2020-09-11T04:03:56Z,2020,4,4,255.1694,255.1694,61.406,-53.347,-999.0,6.62,-999.0,no,yes,no,300234068342820,SVPGHI,AOML,MARIA_S._MERI,North
2020-09-11T05:01:58Z,2020,5,2,255.2097,255.2097,61.406,-53.323,-999.0,6.6,-999.0,no,yes,no,300234068342820,SVPGHI,AOML,MARIA_S._MERI,North
2020-09-11T06:04:01Z,2020,6,4,255.2528,255.2528,61.405,-53.298,-999.0,6.61,-999.0,no,yes,no,300234068342820,SVPGHI,AOML,MARIA_S._MERI,North
2020-09-11T07:00:02Z,2020,7,0,255.2917,255.2917,61.402,-53.27,-999.0,6.6,-999.0,no,yes,no,300234068342820,SVPGHI,AOML,MARIA_S._MERI,North
2020-09-11T08:01:58Z,2020,8,2,255.3347,255.3347,61.398,-53.264,-999.0,6.59,-999.0,no,yes,no,300234068342820,SVPGHI,AOML,MARIA_S._MERI,North
2020-09-11T09:00:00Z,2020,9,0,255.375,255.375,61.399,-53.253,-999.0,6.6,-999.0,no,yes,no,300234068342820,SVPGHI,AOML,MARIA_S._MERI,North
2020-09-11T10:00:02Z,2020,10,0,255.4167,255.4167,61.404,-53.233,-999.0,6.59,-999.0,no,yes,no,300234068342820,SVPGHI,AOML,MARIA_S._MERI,North
2020-09-11T10:59:57Z,2020,11,0,255.4583,255.4583,61.404,-53.206,-999.0,6.6,-999.0,no,yes,no,300234068342820,SVPGHI,AOML,MARIA_S._MERI,North
2020-09-11T12:00:00Z,2020,12,0,255.5,255.5,61.402,-53.177,-999.0,6.61,-999.0,no,yes,no,300234068342820,SVPGHI,AOML,MARIA_S._MERI,North
2020-09-11T13:00:02Z,2020,13,0,255.5417,255.5417,61.396,-53.151,-999.0,6.62,-999.0,no,yes,no,300234068342820,SVPGHI,AOML,MARIA_S._MERI,North
2020-09-11T13:59:57Z,2020,14,0,255.5833,255.5833,61.389,-53.133,-999.0,6.64,-999.0,no,yes,no,300234068342820,SVPGHI,AOML,MARIA_S._MERI,North
2020-09-11T15:00:00Z,2020,15,0,255.625,255.625,61.381,-53.121,-999.0,6.68,-999.0,no,yes,no,300234068342820,SVPGHI,AOML,MARIA_S._MERI,North
2020-09-11T16:02:55Z,2020,16,3,255.6687,255.6687,61.371,-53.109,-999.0,6.69,-999.0,no,yes,no,300234068342820,SVPGHI,AOML,MARIA_S._MERI,North
2020-09-11T16:59:57Z,2020,17,0,255.7083,255.7083,61.363,-53.095,-999.0,5.98,-999.0,no,yes,no,300234068342820,SVPGHI,AOML,MARIA_S._MERI,North
2020-09-11T18:00:00Z,2020,18,0,255.75,255.75,61.351,-53.072,-999.0,5.94,-999.0,no,yes,no,300234068342820,SVPGHI,AOML,MARIA_S._MERI,North
2020-09-11T19:00:02Z,2020,19,0,255.7917,255.7917,61.339,-53.057,-999.0,5.97,-999.0,no,yes,no,300234068342820,SVPGHI,AOML,MARIA_S._MERI,North
2020-09-11T19:59:57Z,2020,20,0,255.8333,255.8333,61.323,-53.04,-999.0,6.01,-999.0,no,yes,no,300234068342820,SVPGHI,AOML,MARIA_S._MERI,North
2020-09-11T21:04:01Z,2020,21,4,255.8778,255.8778,-90.0,-180.0,-999.0,6.03,-999.0,no,yes,no,300234068342820,SVPGHI,AOML,MARIA_S._MERI,North
2020-09-11T22:03:56Z,2020,22,4,255.9194,255.9194,61.28,-53.01,-999.0,6.22,-999.0,no,yes,no,300234068342820,SVPGHI,AOML,MARIA_S._MERI,North
2020-09-11T23:02:58Z,2020,23,3,255.9604,255.9604,61.255,-53.003,-999.0,6.27,-999.0,no,yes,no,300234068342820,SVPGHI,AOML,MARIA_S._MERI,North
2020-09-12T00:00:00Z,2020,0,0,256.0,256.0,61.232,-53.0,-999.0,5.94,-999.0,no,yes,no,300234068342820,SVPGHI,AOML,MARIA_S._MERI,North
2020-09-12T01:00:02Z,2020,1,0,256.0417,256.0417,61.211,-53.006,-999.0,5.88,-999.0,no,yes,no,300234068342820,SVPGHI,AOML,MARIA_S._MERI,North
2020-09-12T01:59:57Z,2020,2,0,256.0833,256.0833,61.193,-53.008,-999.0,5.88,-999.0,no,yes,no,300234068342820,SVPGHI,AOML,MARIA_S._MERI,North
2020-09-12T03:00:00Z,2020,3,0,256.125,256.125,61.177,-53.005,-999.0,5.91,-999.0,no,yes,no,300234068342820,SVPGHI,AOML,MARIA_S._MERI,North
2020-09-12T04:00:02Z,2020,4,0,256.1667,256.1667,61.155,-52.994,-999.0,5.91,-999.0,no,yes,no,300234068342820,SVPGHI,AOML,MARIA_S._MERI,North
2020-09-12T04:59:57Z,2020,5,0,256.2083,256.2083,61.132,-52.99,-999.0,5.98,-999.0,no,yes,no,300234068342820,SVPGHI,AOML,MARIA_S._MERI,North
2020-09-12T06:00:00Z,2020,6,0,256.25,256.25,61.108,-52.992,-999.0,6.02,-999.0,no,yes,no,300234068342820,SVPGHI,AOML,MARIA_S._MERI,North
2020-09-12T07:00:02Z,2020,7,0,256.2917,256.2917,61.089,-52.997,-999.0,5.99,-999.0,no,yes,no,300234068342820,SVPGHI,AOML,MARIA_S._MERI,North
2020-09-12T07:59:57Z,2020,8,0,256.3333,256.3333,61.072,-53.004,-999.0,6.01,-999.0,no,yes,no,300234068342820,SVPGHI,AOML,MARIA_S._MERI,North
2020-09-12T09:02:00Z,2020,9,2,256.3764,256.3764,61.051,-53.009,-999.0,6.01,-999.0,no,yes,no,300234068342820,SVPGHI,AOML,MARIA_S._MERI,North
2020-09-12T10:00:02Z,2020,10,0,256.4167,256.4167,61.03,-53.014,-999.0,6.03,-999.0,no,yes,no,300234068342820,SVPGHI,AOML,MARIA_S._MERI,North
2020-09-12T10:59:57Z,2020,11,0,256.4583,256.4583,61.011,-53.026,-999.0,6.06,-999.0,no,yes,no,300234068342820,SVPGHI,AOML,MARIA_S._MERI,North
2020-09-12T12:00:00Z,2020,12,0,256.5,256.5,60.996,-53.045,-999.0,6.1,-999.0,no,yes,no,300234068342820,SVPGHI,AOML,MARIA_S._MERI,North
2020-09-12T13:00:02Z,2020,13,0,256.5417,256.5417,60.98,-53.066,-999.0,6.24,-999.0,no,yes,no,300234068342820,SVPGHI,AOML,MARIA_S._MERI,North
2020-09-12T13:59:57Z,2020,14,0,256.5833,256.5833,60.966,-53.088,-999.0,6.34,-999.0,no,yes,no,300234068342820,SVPGHI,AOML,MARIA_S._MERI,North
2020-09-12T15:00:00Z,2020,15,0,256.625,256.625,60.954,-53.113,-999.0,6.33,-999.0,no,yes,no,300234068342820,SVPGHI,AOML,MARIA_S._MERI,North
2020-09-12T16:00:02Z,2020,16,0,256.6667,256.6667,60.94,-53.141,-999.0,6.33,-999.0,no,yes,no,300234068342820,SVPGHI,AOML,MARIA_S._MERI,North
2020-09-12T16:59:57Z,2020,17,0,256.7083,256.7083,60.93,-53.171,-999.0,6.33,-999.0,no,yes,no,300234068342820,SVPGHI,AOML,MARIA_S._MERI,North
2020-09-12T18:01:00Z,2020,18,1,256.7507,256.7507,60.922,-53.207,-999.0,6.5,-999.0,no,yes,no,300234068342820,SVPGHI,AOML,MARIA_S._MERI,North
2020-09-12T19:00:02Z,2020,19,0,256.7917,256.7917,60.912,-53.235,-999.0,6.74,-999.0,no,yes,no,300234068342820,SVPGHI,AOML,MARIA_S._MERI,North
2020-09-12T19:59:57Z,2020,20,0,256.8333,256.8333,60.905,-53.266,-999.0,6.89,-999.0,no,yes,no,300234068342820,SVPGHI,AOML,MARIA_S._MERI,North